User: anonymous   Login
Location: Vancouver
(49.2500°N, 123.1330°W)
Time: 08:26:42
(UTC-07:00)
Language:

Cosmos 1340 Rocket - Orbit

View from above orbital plane
View from above orbital plane
View from above satellite
View from above satellite

Ground track
Ground track

The orbit data is extracted from the following two-line orbital elements,

1 13068U 82013B   17232.23905994 +.00000649 +00000-0 +41547-4 0  9992
2 13068 081.2041 149.3491 0023225 103.3782 257.0033 15.06954484932870
Epoch (UTC): 20 August 2017 05:44:14
Eccentricity: 0.0023225
inclination: 81.2041°
perigee height: 529 km
apogee height: 561 km
right ascension of ascending node: 149.3491°
argument of perigee: 103.3782°
revolutions per day: 15.06954484
mean anomaly at epoch: 257.0033°
orbit number at epoch: 93287

The dashed part of the orbit path shows where the satellite is in the earth's shadow,  

DLR